Location: Branche des Alpilles
(43.6087°N, 4.6976°E)
Time: 09:20:42
(UTC+00:00)

Cosmos 1656 Rocket - Pass Details

Date: 30 November 2020
Orbit: 796 x 846 km, 71.1° (Epoch: 25 January)

Event Time Altitude Azimuth Distance (km) Brightness Sun altitude
Rises 17:24:18 0° 341° (NNW) 3,405 6.9 -13.8°
Reaches altitude 10° 17:27:01 10° 351° (N) 2,461 6.0 -14.3°
Maximum altitude 17:32:05 33° 55° (NE) 1,370 4.3 -15.2°
Enters shadow 17:35:19 19° 107° (ESE) 1,887 5.0 -15.7°
